Location: Bukit Setapoh
(2.2500°N, 113.8000°E)
Time: 00:05:30
(UTC+00:00)

Maqsat-H - Pass Details

Date: 25 July 2021
Orbit: 575 x 26397 km, 7.5° (Epoch: 22 September)

Event Time Altitude Azimuth Distance (km) Brightness Sun altitude
Rises 11:09:11 0° 257° (WSW) 6,526 7.8 -8.1°
Reaches altitude 10° 11:15:19 10° 252° (WSW) 3,751 6.4 -9.6°
Maximum altitude 11:22:02 43° 180° (S) 1,012 2.5 -11.1°
Enters shadow 11:24:33 17° 112° (ESE) 1,521 2.9 -11.7°
